PST,Max TemperatureF,Mean TemperatureF,Min TemperatureF,Max Dew PointF,MeanDew PointF,Min DewpointF,Max Humidity, Mean Humidity, Min Humidity, Max Sea Level PressureIn, Mean Sea Level PressureIn, Min Sea Level PressureIn, Max VisibilityMiles, Mean VisibilityMiles, Min VisibilityMiles, Max Wind SpeedMPH, Mean Wind SpeedMPH, Max Gust SpeedMPH,PrecipitationIn, CloudCover, Events, WindDirDegrees
2012-11-1,56,50,44,49,47,42,100,89,77,30.02,29.86,29.75,10,9,2,9,4,,0.18,7,Rain,193
2012-11-2,53,49,45,46,44,42,93,82,71,30.14,30.08,30.01,10,10,8,12,2,28,0.01,7,Rain,189
2012-11-3,53,50,46,46,46,44,93,85,77,30.14,30.06,30.03,10,9,6,18,5,22,0.01,8,Rain,185
2012-11-4,56,52,47,49,47,45,93,85,77,30.30,30.23,30.14,10,10,7,13,5,17,0.00,6,,175
2012-11-5,61,52,43,50,47,40,93,79,64,30.25,30.20,30.10,10,10,8,12,4,16,0.00,1,,329
2012-11-6,53,45,37,46,43,37,100,89,77,30.19,30.03,29.84,10,8,0,10,2,13,0.00,6,Fog,193
2012-11-7,57,43,28,38,25,15,92,56,20,30.03,29.97,29.86,10,10,6,12,5,18,0.00,1,,222
2012-11-8,48,39,29,30,27,23,78,64,49,29.98,29.86,29.79,10,10,10,22,12,29,0.00,4,,349
2012-11-9,41,36,31,34,28,21,96,73,50,29.98,29.88,29.79,10,10,6,16,10,22,T,7,Rain-Snow,350
2012-11-10,38,30,22,22,18,15,75,60,44,30.26,30.13,29.99,10,10,10,17,10,24,0.00,3,,348
2012-11-11,29,23,17,27,21,13,100,82,63,30.39,30.33,30.27,10,6,1,8,2,9,0.21,6,Snow,333
2012-11-12,33,30,27,32,29,26,100,93,85,30.31,30.25,30.20,5,2,0,3,0,5,0.22,8,Fog-Snow,110
2012-11-13,36,34,32,34,33,30,100,95,89,30.32,30.24,30.17,5,2,0,6,1,6,T,8,Fog-Rain-Snow,217
2012-11-14,40,37,34,36,34,33,100,93,85,30.40,30.26,30.17,10,4,0,7,1,7,0.00,8,Fog,145
2012-11-15,38,37,35,34,34,32,92,89,85,30.39,30.22,30.03,10,9,5,8,1,9,0.02,8,Rain,146
2012-11-16,40,38,36,37,36,34,100,93,85,30.04,29.99,29.93,10,5,1,7,1,9,0.02,8,Rain,153
2012-11-17,42,40,37,39,37,36,100,93,85,29.94,29.68,29.53,10,5,0,13,3,16,0.57,8,Fog-Rain,201
2012-11-18,43,39,35,39,35,32,92,81,70,29.88,29.80,29.65,10,10,5,21,9,25,0.39,6,Rain,184
2012-11-19,54,48,42,43,41,38,92,82,71,29.74,29.64,29.49,10,10,6,29,12,39,0.37,7,Rain,176
2012-11-20,50,44,37,45,41,34,92,79,66,29.74,29.66,29.58,10,9,2,6,7,7,0.13,6,Rain-Thunderstorm,187
2012-11-21,52,41,29,38,32,25,92,64,35,30.18,29.79,29.60,10,10,5,20,6,25,0.08,3,Rain,188
2012-11-22,42,33,24,32,28,23,92,78,64,30.48,30.41,30.22,10,10,8,8,3,12,0.00,4,,209
2012-11-23,41,39,36,36,34,32,92,83,73,30.37,30.21,30.07,10,10,9,14,6,18,0.04,8,Rain,196
2012-11-24,45,36,26,35,32,23,96,81,65,30.22,30.17,30.09,10,10,9,8,3,9,0.00,4,,329
2012-11-25,43,32,21,29,24,19,92,75,57,30.40,30.32,30.21,10,10,2,7,1,7,0.00,0,,311
2012-11-26,34,27,20,28,25,17,92,87,82,30.40,30.32,30.22,10,10,10,7,2,8,0.00,5,,181
2012-11-27,34,32,29,28,26,24,92,81,69,30.31,30.25,30.17,10,10,9,7,1,9,0.00,8,,353
2012-11-28,35,30,24,31,29,23,92,81,70,30.15,29.92,29.82,10,5,1,6,1,7,0.11,6,Snow,174
2012-11-29,35,34,32,34,33,30,100,95,89,29.91,29.78,29.63,10,3,0,5,2,6,0.25,8,Fog-Rain-Snow,195
2012-11-30,43,39,35,39,36,34,100,91,82,29.62,29.55,29.51,10,6,1,13,4,17,0.10,8,Rain,162